www.pogodaiklimat.ru

Погода и климат >> Архив погоды >> Израиль >> Эйлат


ПОГОДА в Эйлате

  • Прогноз погоды в Эйлате
  • Монитор погоды в Эйлате

АРХИВ ПОГОДЫ в Эйлате

Время (UTC), дата Ветер
(напр.,м/с)
 
Видим.   Явления Облачность Т
(С)
Тd
(С)
f
(%)
Тe
(С)
Тes
(С)
Комфортность P
(гПа)
Po
(гПа)
Тmin
(С)
Tmax
(С)
R
(мм)
R24
(мм)
S
(см)
06 12.06 В 1 10 км ясно +33.7 +11.5 26 +34 +45 очень
жарко
1010.8 1008.4 +25.1 +33.9
09 12.06 Ю 1 10 км ясно +36.9 +9.0 18 +35 +60 опасность
солнечного
удара
1009.9 1007.6
12 12.06 Ю 1 10 км ясно +38.7 +7.6 15 +36 +55 опасность
солнечного
удара
1007.5 1005.2
15 12.06 СЗ 1 10 км ясно +39.7 +6.1 13 +37 +40 очень
жарко
1006.9 1004.6
18 12.06 С 1 н/о н/о +33.6 +16.7 36 +36 +36 очень
душно
1008.8 1006.4 +33.5 +40.6
21 12.06 С 2 н/о н/о +29.2 +11.8 34 +30 +30 жарко 1011.4 1009.0
00 13.06 С 1 н/о н/о +27.1 +13.8 44 +29 +29 жарко 1010.8 1008.4
03 13.06 СВ 1 н/о н/о +25.4 +13.7 48 +28 +28 жарко 1011.2 1008.8
06 13.06 В 2 10 км ясно +28.8 +14.6 42 +31 +41 жарко 1011.6 1009.2 +25.3 +33.5
09 13.06 СВ 1 10 км ясно +33.8 +11.2 25 +33 +58 опасность
солнечного
удара
1010.3 1007.9
12 13.06 В 2 10 км ясно +35.9 +11.0 22 +35 +51 опасность
солнечного
удара
1007.5 1005.2
15 13.06 С 2 н/о н/о +35.7 +10.4 22 +35 +35 очень
жарко
1007.1 1004.8
18 13.06 СЗ 2 н/о н/о +32.5 +13.5 32 +34 +34 очень
жарко
1007.9 1005.5 +29.0 +37.4
21 13.06 С 2 н/о н/о +29.8 +13.7 37 +31 +31 жарко 1009.3 1006.9
00 14.06 СВ 1 н/о н/о +27.5 +12.7 40 +29 +29 жарко 1008.5 1006.1
03 14.06 С 1 н/о н/о +25.9 +13.9 47 +28 +28 жарко 1008.3 1005.9
06 14.06 СВ 2 н/о н/о +29.5 +14.8 41 +32 +32 душно 1008.9 1006.5 +25.7 +32.4
09 14.06 В 2 н/о н/о +33.2 +14.2 32 +35 +35 душно 1007.8 1005.4
12 14.06 0 н/о
15 14.06 С 1 н/о н/о +36.3 +12.3 24 +36 +36 очень
жарко
1004.1 1001.8
18 14.06 С 1 н/о н/о +33.1 +11.9 28 +33 +33 жарко 1005.6 1003.2 +29.7 +37.6
21 14.06 СВ 2 н/о н/о +30.7 +15.8 41 +34 +34 очень
душно
1006.4 1004.0
00 15.06 С 1 н/о н/о +28.6 +15.5 45 +31 +31 жарко 1006.3 1003.9
03 15.06 СВ 1 н/о н/о +26.8 +15.7 51 +30 +30 душно 1006.7 1004.3
06 15.06 СВ 2 н/о н/о +30.9 +15.7 40 +34 +34 душно 1007.1 1004.7 +26.5 +33.1
09 15.06 В 1 н/о н/о +35.1 +14.8 30 +37 +37 очень
душно
1006.3 1004.0
12 15.06 0 н/о
15 15.06 Ю 1 н/о н/о +32.5 +19.8 47 +38 +38 очень
душно
1003.8 1001.4
18 15.06 Ю 1 н/о н/о +31.0 +16.9 43 +35 +35 очень
душно
1005.5 1003.1 +30.6 +36.7
21 15.06 штиль 0 н/о н/о +28.4 +17.7 52 +33 +33 очень
душно
1006.3 1003.9
00 16.06 ЮЗ 1 н/о н/о +28.2 +16.0 48 +31 +31 душно 1006.2 1003.8
03 16.06 штиль 0 н/о н/о +26.1 +14.8 50 +29 +29 жарко 1007.2 1004.8
06 16.06 В 1 10 км ясно +32.8 +14.2 33 +34 +46 очень
жарко
1008.1 1005.7 +26.0 +33.1
09 16.06 Ю 2 н/о н/о +32.4 +18.6 44 +37 +37 очень
душно
1007.8 1005.4
15 16.06 Ю 2 н/о н/о +33.3 +18.4 41 +38 +38 очень
душно
1005.4 1003.0
18 16.06 ЮЗ 1 н/о н/о +32.3 +16.4 39 +35 +35 очень
душно
1006.9 1004.5 +31.6 +35.4
21 16.06 ЮВ 1 н/о н/о +30.3 +18.8 50 +35 +35 очень
душно
1008.1 1005.7
00 17.06 штиль 0 н/о н/о +28.7 +18.9 55 +34 +34 очень
душно
1007.8 1005.4
03 17.06 СВ 1 н/о н/о +26.0 +15.6 53 +29 +29 душно 1008.4 1006.0
06 17.06 ЮВ 1 10 км ясно +33.7 +14.6 32 +35 +47 очень
жарко
1009.1 1006.7 +26.0 +33.9
09 17.06 0 н/о
12 17.06 Ю 1 10 км 8/8 1000 м
[Cb calv]
+37.7 +15.6 27 +39 +43 очень
душно
1006.9 1004.6
15 17.06 Ю 1 10 км 8/8 1000 м
[Cu med, cong]
+32.3 +20.3 49 +39 +39 очень
душно
1006.9 1004.5
18 17.06 Ю 1 н/о н/о +31.0 +18.2 46 +35 +35 очень
душно
1008.6 1006.2 +31.0 +38.7
21 17.06 СВ 2 н/о н/о +31.8 +12.8 31 +32 +32 жарко 1009.9 1007.5
00 18.06 С 1 н/о н/о +29.1 +13.1 37 +30 +30 жарко 1010.1 1007.7
03 18.06 В 1 н/о н/о +26.5 +12.8 43 +28 +28 жарко 1010.7 1008.3
06 18.06 СВ 1 10 км ясно +32.5 +13.8 32 +34 +45 очень
жарко
1011.7 1009.3 +26.5 +32.9
09 18.06 В 2 н/о н/о +36.2 +14.7 28 +37 +37 очень
жарко
1010.9 1008.6
12 18.06 ЮЗ 1 10 км 6/0
[Cs]
+38.6 +13.8 23 +39 +55 опасность
солнечного
удара
1008.8 1006.5
15 18.06 С 2 н/о н/о +38.6 +8.8 17 +37 +37 очень
жарко
1008.7 1006.4
18 18.06 С 1 н/о н/о +34.9 +9.6 21 +34 +34 очень
жарко
1010.0 1007.7 +32.8 +40.9
21 18.06 СВ 2 н/о н/о +32.0 +12.3 30 +32 +32 жарко 1011.5 1009.1
00 19.06 В 1 н/о н/о +29.5 +13.4 37 +31 +31 жарко 1010.6 1008.2
03 19.06 С 1 н/о н/о +26.1 +13.6 46 +28 +28 жарко 1010.1 1007.7

 

Местоположение метеостанции Эйлат (Израиль): широта 29.55 долгота 34.95 высота над уровнем моря 12 м.

В архиве по умолчанию представлена погода в Эйлате за последнюю неделю. Архивные данные за месяц целиком и за предыдущие месяцы, начиная с января 2011 года, Вы можете получить, выбрав интересующий диапазон дат из раскрывающегося списка и нажав кнопку "Ввод!".


*Определитесь, кто Вы:
робот инопланетянин человек

Внимание! Время в таблицах - всемирное. Для получения местного времени необходимо прибавить поправку, которая равна 2 ч.

Смотрите также архив погоды в соседних городах и на ближайших метеорологических станциях:

Погода в Акаба (Иордания) (5 км)
Погода в Неот-Смадаре (Израиль) (56 км)
Погода в Маане (Иордания) (106 км)
Погода в Нехеле (Египет) (125 км)
Погода в Седоме (Израиль) (170 км)
Погода в Гавр-эс-Сафи (Иордания) (172 км)
Погода в Абу Редис (Египет) (186 км)
Погода в Беэр-Шева (Израиль) (190 км)
Погода в Эль-Торе (Египет) (196 км)
Погода в Эль-Арише (Египет) (202 км)

Пояснения к столбцам:

Ветер - указаны скорость ветра в м/с - средняя за 10 мин, порывы в срок и между сроками (в фигурных скобках) и направление, откуда дует ветер: С - северный, СВ - северо-восточный, В - восточный, ЮВ - юго-восточный, Ю - южный, ЮЗ - юго-западный, З - западный, СЗ - северо-западный.
Видимость - горизонтальная дальность видимости в метрах или километрах. При видимости от 1 до 10 км при отсутствии осадков обычно наблюдается дымка, при ухудшении видимости до 1 км и менее - туман. В сухую погоду видимость может ухудшаться дымом, пылью или мглою.
Явления - указаны атмосферные явления, наблюдавшиеся в срок или в последний час перед сроком; фигурными скобками обозначены явления, наблюдавшиеся между сроками (за 1-3 часа до срока); квадратными скобками обозначены град или гололедные отложения с указанием их диаметра в мм.
Облачность - указаны через наклонную черту общая и нижняя облачность в баллах и высота нижней границы облаков в метрах; квадратными скобками обозначены формы облаков: Ci - перистые, Cs - перисто-слоистые, Cc - перисто-кучевые, Ac - высококучевые, As - высокослоистые, Sc - слоисто-кучевые, Ns - слоисто-дождевые, Cu - кучевые, Cb - кучево-дождевые. Подробнее классификацию облаков см. в Атласе облаков (PDF).
T - Температура воздуха - температура, измеренная на высоте 2 м над землей.
Td - Температура точки росы - температура, при понижении до которой содержащийся в воздухе водяной пар достигнет насыщения.
f - Относительная влажность воздуха - влажноcть воздуха, измеренная на высоте 2 м над землей.
Te - Эффективная температура - температура, которую ощущает одетый по сезону человек в тени. Характеристика душности погоды. При расчете учитывается влияние влажности воздуха и скорости ветра на теплоощущения человека.
Tes - Эффективная температура на солнце - температура, которую ощущает человек, с поправкой на солнечный нагрев. Характеристика знойности погоды. Зависит от высоты солнца над горизонтом, облачности и скорости ветра. Ночью, в пасмурную погоду, а также при ветре 12 м/с и более поправка равна нулю.
P - Атмосферное давление - приведенное к уровню моря атмосферное давление.
Po - Атмосферное давление - измеренное на уровне метеостанции атмосферное давление.
Tmin - Минимальная температура - минимум температуры воздуха на высоте 2 м над землей.
Tmax - Максимальная температура - максимум температуры воздуха на высоте 2 м над землей.
R - Количество осадков - Количество выпавших осадков за период времени, мм. При наведении курсора мыши на число - период времени, за который выпало указанное количество осадков.
R24 - Количество осадков - Количество выпавших осадков за 24 часа, мм.
S - Снежный покров - Высота снежного покрова, см. При наведении курсора мыши на число - состояние снежного покрова и степень покрытия местности в баллах.